Flag for Brunei Weather past 2 weeks in Bandar Seri Begawan, Brunei

Now
88 °F

Broken clouds.


Feels Like: 98 °F
Forecast: 76 / 83 °F
Wind: 8 mph from Southwest

Location: Brunei Airport

Current Time: Aug 4, 2015 at 12:03:27 PM

Latest Report: Aug 4, 2015 at 11:30 AM


Visibility: N/A

Pressure: 29.83 "Hg

Humidity: 66%

Dew point: 75 °F

Location of Bandar Seri BegawanLocation

Historic Weather in Bandar Seri Begawan — Graph

°F

Bandar Seri Begawan temperature yesterday

Maximum temperature yesterday: 90 °F (at 1:30 PM)
Minimum temperature yesterday: 77 °F (at 3:00 AM)
Average temperature yesterday: 81 °F

Past Weeks' High & Low Weather Summary

 TemperatureHumidityPressure
High91 °F (Jul 20, 12:00 PM)100% (Jul 20, 11:00 PM)29.98 "Hg (Jul 20, 11:00 PM)
Low75 °F (Jul 20, 11:00 PM)56% (Jul 23, 12:30 PM)29.77 "Hg (Jul 20, 3:30 PM)
Average81 °F85%29.88 "Hg
* Reported Jul 20 10:00 AM — Aug 4 10:30 AM, Bandar Seri Begawan, Weather by CustomWeather, © 2015

Note: Actual official high and low records may vary slightly from our data, if they occured in-between our weather recording intervals... More about our weather records

Advertising

Bandar Seri Begawan weather history for previous 24 hours

 ConditionsComfort  
Time TempWeatherWind HumidityBarometerVisibility
10:30 AM
Tue, Aug 4
86 °FPartly sunny.7 mph70%29.86 "HgN/A
10:00 AM84 °FPartly sunny.6 mph74%29.86 "HgN/A
9:30 AM84 °FPartly sunny.7 mph74%29.86 "HgN/A
9:00 AM82 °FBroken clouds.7 mph79%29.86 "HgN/A
8:30 AM82 °FBroken clouds.8 mph79%29.83 "HgN/A
8:00 AM81 °FBroken clouds.7 mph84%29.83 "HgN/A
7:30 AM77 °FBroken clouds.6 mph94%29.83 "HgN/A
7:00 AM75 °FPartly sunny.3 mph100%29.83 "HgN/A
6:30 AM75 °FPartly sunny.6 mph100%29.83 "HgN/A
6:00 AM75 °FPassing clouds.5 mph94%29.83 "HgN/A
5:30 AM75 °FPassing clouds.2 mph94%29.83 "HgN/A
5:00 AM75 °FPassing clouds.5 mph94%29.83 "HgN/A
4:30 AM77 °FPassing clouds.5 mph89%29.83 "HgN/A
4:00 AM75 °FPartly cloudy.5 mph94%29.83 "HgN/A
3:30 AM75 °FSprinkles. Partly cloudy.5 mph100%29.83 "HgN/A
3:00 AM75 °FSprinkles. Partly cloudy.5 mph100%29.86 "HgN/A
2:30 AM77 °FSprinkles. Partly cloudy.6 mph94%29.86 "HgN/A
2:00 AM75 °FSprinkles. Partly cloudy.3 mph100%29.86 "HgN/A
1:30 AM77 °FSprinkles. Partly cloudy.3 mph94%29.86 "HgN/A
1:00 AM77 °FPassing clouds.3 mph94%29.86 "HgN/A
12:30 AM77 °FPassing clouds.6 mph94%29.86 "HgN/A
12:00 AM77 °FPartly cloudy.7 mph94%29.89 "HgN/A
11:30 PM
Mon, Aug 3
77 °FPartly cloudy.3 mph94%29.89 "HgN/A
11:00 PM77 °FPartly cloudy.2 mph94%29.89 "HgN/A
10:30 PM77 °FPartly cloudy.2 mph94%29.89 "HgN/A
10:00 PM77 °FSprinkles. Partly cloudy.5 mph94%29.89 "Hg5 mi
9:30 PM79 °FSprinkles. Passing clouds.7 mph89%29.89 "Hg4 mi
9:00 PM79 °FPassing clouds.5 mph89%29.89 "HgN/A
8:30 PM79 °FPassing clouds.6 mph89%29.89 "HgN/A
8:00 PM81 °FPassing clouds.5 mph84%29.86 "HgN/A
7:30 PM79 °FPassing clouds.2 mph89%29.86 "HgN/A
7:00 PM81 °FPassing clouds.7 mph84%29.83 "HgN/A
6:30 PM82 °FPartly sunny.3 mph84%29.83 "HgN/A
5:30 PM84 °FPartly sunny.6 mph74%29.80 "HgN/A
5:00 PM84 °FBroken clouds.7 mph74%29.80 "HgN/A
4:30 PM84 °FBroken clouds.6 mph74%29.80 "HgN/A
4:00 PM84 °FBroken clouds.8 mph74%29.80 "HgN/A
3:30 PM84 °FBroken clouds.9 mph79%29.80 "HgN/A
3:00 PM86 °FBroken clouds.5 mph75%29.80 "HgN/A
2:30 PM82 °FSprinkles. Broken clouds.2 mph79%29.83 "Hg5 mi
2:00 PM81 °FSprinkles. Broken clouds.12 mph84%29.83 "Hg1 mi
1:30 PM90 °FScattered showers. Broken clouds.8 mph59%29.83 "Hg3 mi
1:00 PM88 °FBroken clouds.9 mph66%29.83 "HgN/A
Weather by CustomWeather, © 2015

See weather overviewHow to use our weather pages